Weather in Herat

Afghanistan     34°20′49″N   62°12′15″E
temp.,
°C
wind,
m/s
gust,
m/s
humid.,
%
clouds,
%
prec.,
mm/h
press.,
hPa
HPBL,
m
17 june, thu
thu1701:30+23nne510110 0.0 1006149
04:30+20nne44140 0.0 100738
07:30+26ne712120 0.0 10071314
10:30+30nne111290 0.0 10052009
13:30+32nne121280 0.0 10042331
16:30+32nne111290 0.0 10032636
19:30+28nne913100 0.0 1004405
22:30+26nne612110 0.0 1006230
18 june, fri
fri1801:30+23nne34120 0.0 100526
04:30+21ne34140 0.0 100626
07:30+25ne49110 0.0 1006559
10:30+32nne101160 0.0 10052131
13:30+34nne111050 0.0 10032625
16:30+34nne111260 0.0 10032721
19:30+30nne81380 0.0 1005348
22:30+27nne612100 0.0 1006236
19 june, sat
sat1901:30+27ne1018100 0.0 1006610
04:30+26ne1019110 0.0 1006592
07:30+29ne1117110 0.0 10082051
10:30+32ne151680 0.0 10072746
13:30+34nne141470 0.0 10053252
16:30+35ne131470 0.0 10043505
19:30+31nne1116100 0.0 1006655
22:30+28nne1219150 0.0 10071005
20 june, sun
sun2001:30+26ne916150 0.0 1008527
04:30+24ne713190 0.0 1008302
07:30+26nne815180 0.0 10091839
10:30+29nne1215130 0.0 10092043
13:30+31nne131490 0.0 10072412
16:30+29nne141570 0.0 10072039
19:30+26nne111790 0.0 10081010
22:30+24nne916100 0.0 1009602
21 june, mon
mon2101:30+22nne814110 0.0 1008364
04:30+19ne46140 0.0 100895
07:30+23ne59120 0.0 1009801
10:30+29nne111290 0.0 10071604
13:30+32nne131170 0.0 10051743
16:30+31nne141470 0.0 10051764
19:30+27nne1117110 0.0 1007751
22:30+25ne815150 0.0 1008453